Southern Pines, NC (28387)

7:24 AM EDT on July 24, 2016 (GMT -0400)
Broad Street Towns | | Change Station
Active Advisory: Heat Advisory Active Notice: Local Storm Report

Elev 505 ft 35.17 °N, 79.40 °W | Updated 13 minutes ago

Overcast
Overcast
72.9 °F
Feels Like 72.9 °F
N
0.0
Wind Variable Wind from SSW

Today
High -- | Low -- °F
--% Chance of Precip.
Yesterday
High -- | Low -- °F
Precip. -- in
Pressure 30.04 in
Visibility 0.8 miles
Clouds Overcast 200 ft
Dew Point 73 °F
Humidity 99%
Rainfall 0.00 in
Snow Depth Not available.
6:21 AM 8:26 PM
Waning Gibbous, 77% visible
SPECI KSOP 241119Z AUTO 00000KT 3/4SM BR OVC002 23/23 A3004 RMK AO2
Pressure 30.04 in
Visibility 0.8 miles
Clouds Overcast 200 ft
Dew Point 73 °F
Humidity 99%
Rainfall 0.00 in
Snow Depth Not available.
6:21 AM 8:26 PM
Waning Gibbous, 77% visible
SPECI KSOP 241119Z AUTO 00000KT 3/4SM BR OVC002 23/23 A3004 RMK AO2

10-Day Weather Forecast

Almanac

Astronomy

Jul. 24, 2016 Rise Set
Actual Time
Civil Twilight
Nautical Twilight
Astronomical Twilight
Moon
Length of Visible Light
Length of Day
Tomorrow will be .
, % of the Moon is Illuminated

Today's Extremes

State Highs State Lows

Community

WunderPhotos

Upload Photos

1,927,048 photos uploaded!

WunderBlog® & News

Nearby

Air Quality

  Air Quality AQ Index Pollutant
Not available.

Snow Depth

Station Depth Elevation

Earthquake Activity

City Distance Mag. Time & Date
Minimum magnitude displayed is 2.5.

Coastal Water Temperatures

Place Temperature

Stations

Nearby Weather Stations

Station Location Temp. Windchill Dew Point Humidity Wind Precip. Elev Updated Type
                   

Watches & Warnings

Heat Advisory
Issued: 3:45 AM EDT Jul. 24, 2016 – National Weather Service

... Heat advisory remains in effect from noon today to 8 PM EDT
this evening...

* temperature... highs will be in the mid to upper 90s.

* Impacts... the heat and humidity will make it feel close to 105
degrees this afternoon. Being in direct sunlight will make it
feel even hotter. This will lead to a greater risk of heat
illnesses... especially among vulnerable individuals such as
the sick and elderly... those exerting themselves outdoors...
and those without air conditioning.

Precautionary/preparedness actions...

A heat advisory means that a period of hot temperatures and high
humidity will create a situation in which heat illnesses are
possible. Drink plenty of fluids... stay in an air-conditioned
room... stay out of the sun... and check up on relatives and
neighbors.